Simultaneous Nadir Overpasses (SNOs) Predictions

Prediction of SNOs between METOP-A and TERRA Satellite Orbit:

Table of predicted SNOs for the next 14.0 days since TLE Epoch: 6/13/2015
Index Date (METOP-A) Time (METOP-A) Lat,Lon (METOP-A) SZA (METOP-A ) Date (TERRA) Time (TERRA) Lat,Lon (TERRA) SZA (TERRA ) Distance(km) Time Diff (sec)
1 06/14/2015 00:12:01 81.34,-134.94 61.13 06/14/2015 00:12:18 81.34,-134.99 61.13 0.98 17
2 06/14/2015 01:02:40 -81.35, 33.00 118.80 06/14/2015 01:01:44 -81.35, 32.89 118.84 1.81 56
3 06/16/2015 19:46:21 81.34, -68.64 60.97 06/16/2015 19:46:34 81.34, -68.65 60.97 0.92 13
4 06/16/2015 20:37:00 -81.35, 99.33 118.95 06/16/2015 20:36:00 -81.35, 99.26 118.99 1.20 60
5 06/19/2015 15:20:40 81.35, -2.01 60.92 06/19/2015 15:20:49 81.34, -2.09 60.91 1.45 9
6 06/19/2015 16:11:19 -81.35, 165.99 119.01 06/19/2015 16:10:15 -81.36, 165.85 119.05 2.42 64
7 06/22/2015 10:54:59 81.34, 64.17 60.86 06/22/2015 10:55:03 81.34, 64.32 60.87 2.56 4
8 06/22/2015 11:45:38 -81.35,-127.80 119.06 06/22/2015 11:44:29 -81.36,-127.71 119.08 1.71 69
9 06/25/2015 05:38:38 -81.34, -36.90 119.15 06/25/2015 05:39:51 -81.35, -36.72 119.09 3.11 73
10 06/25/2015 06:29:17 81.35, 131.07 60.94 06/25/2015 06:29:17 81.35, 130.96 60.93 1.88 0




NCC Satellite Simultaneous Nadir Overpasses (SNOs) Prediction Service
